This is the latest recevied weather packets stored in our database for station/object KO4DYK. If no packets are shown the sender has not sent any weather packets the latest 10 day(s).
| Time | Temp. | Humidity | Pressure | Rain* | Wind** | Luminosity | Snow |
|---|---|---|---|---|---|---|---|
| 1788366999 | 35° C | 57% | 1020.4 hPa | 0 mm | - | 131 W/m² | - |
| 1788366699 | 34.44° C | 57% | 1020.2 hPa | 0 mm | - | 156 W/m² | - |
| 1788366397 | 34.44° C | 58% | 1020.2 hPa | 0 mm | - | 153 W/m² | - |
| 1788366092 | 37.22° C | 50% | 1020.2 hPa | 0 mm | - | 132 W/m² | - |
| 1788365787 | 36.67° C | 51% | 1020.4 hPa | 0 mm | - | 644 W/m² | - |
| 1788365484 | 36.67° C | 53% | 1020.3 hPa | 0 mm | - | 131 W/m² | - |
| 1788365180 | 35.56° C | 56% | 1020.5 hPa | 0 mm | - | 630 W/m² | - |
| 1788364874 | 35.56° C | 54% | 1020.5 hPa | 0 mm | - | 646 W/m² | - |
| 1788364573 | 35.56° C | 56% | 1020.6 hPa | 0 mm | - | 673 W/m² | - |
| 1788364272 | 33.89° C | 61% | 1020.6 hPa | 0 mm | - | 614 W/m² | - |
| 1788363967 | 34.44° C | 58% | 1020.5 hPa | 0 mm | - | 557 W/m² | - |
| 1788363661 | 35° C | 58% | 1020.6 hPa | 0 mm | - | 521 W/m² | - |
| 1788363360 | 35° C | 56% | 1020.5 hPa | 0 mm | - | 616 W/m² | - |
| 1788363056 | 34.44° C | 60% | 1020.6 hPa | 0 mm | - | 602 W/m² | - |
| 1788362752 | 35° C | 60% | 1020.5 hPa | 0 mm | - | 493 W/m² | - |
| 1788362447 | 33.89° C | 62% | 1020.5 hPa | 0 mm | - | 515 W/m² | - |
| 1788362143 | 33.89° C | 63% | 1020.6 hPa | 0 mm | - | 529 W/m² | - |
| 1788361853 | 34.44° C | 62% | 1020.6 hPa | 0 mm | - | 461 W/m² | - |
| 1788361538 | 34.44° C | 63% | 1020.6 hPa | 0 mm | - | 443 W/m² | - |
| 1788361234 | 33.89° C | 65% | 1020.8 hPa | 0 mm | - | 497 W/m² | - |
| 1788360928 | 33.89° C | 69% | 1020.8 hPa | 0 mm | - | 429 W/m² | - |
| 1788360629 | 33.33° C | 66% | 1020.7 hPa | 0 mm | - | 383 W/m² | - |
| 1788360326 | 34.44° C | 68% | 1020.8 hPa | 0 mm | - | 464 W/m² | - |
| 1788360025 | 33.89° C | 69% | 1020.6 hPa | 0 mm | - | 442 W/m² | - |
| 1788359720 | 32.78° C | 72% | 1020.6 hPa | 0 mm | - | 410 W/m² | - |
* Rain latest hour (hover to see other rain measurements)
** Current wind speed in m/s (hover to see current wind gust speed)